RH
30 30 27 27 32 36 59 71 69 71 75 90 81 83 79 60 85 102 94 99 101 89 90 101 92 87 98 102 86 71 63 52 42 36 34 32 31 32 33 32 30 44 60 51 33 29 23 14 20 50 65 41 16 11 16 14 12 12 13 17 25 34 36 35 33 31 30 30 33 35 32 32 34 32 33 34 35 37 38 40 42 44 45 46 46 49 53 58 63 68 71 70 68 63 56 49 45
26 29 26 27 32 46 75 60 50 71 80 94 85 78 77 80 99 99 99 101 99 95 92 98 101 99 102 102 90 79 61 46 42 39 40 37 34 34 32 29 30 48 62 51 35 31 22 13 25 57 63 34 13 12 14 11 11 12 13 19 28 34 33 34 31 31 31 31 34 33 31 33 33 32 33 35 39 41 42 44 44 45 46 47 47 48 47 46 46 45 47 50 54 58 62 61 57
18 26 23 27 36 40 55 51 50 73 87 97 98 91 80 93 103 95 102 101 98 100 97 100 104 102 100 103 93 71 50 43 43 43 46 40 37 35 34 32 34 46 50 45 37 32 20 13 31 61 60 28 11 13 11 10 11 11 14 23 31 32 32 32 29 31 31 32 33 30 31 32 31 31 31 32 35 39 44 48 50 52 52 53 52 49 48 47 45 44 40 37 37 39 44 49 54
14 19 21 26 35 34 34 42 52 68 88 96 100 91 62 73 96 101 99 89 93 95 89 87 92 100 100 102 91 62 44 43 42 44 45 41 38 39 44 39 37 41 38 40 38 29 17 15 37 64 55 21 11 12 9 11 11 12 18 27 31 31 33 30 28 31 31 32 30 29 31 31 30 31 31 30 30 32 38 47 53 56 58 59 55 48 45 46 44 38 33 32 31 29 30 31 36
13 13 20 25 28 33 33 37 40 49 81 98 100 92 67 64 81 100 100 85 82 78 77 78 84 95 99 100 84 56 43 43 42 43 44 42 40 44 58 50 38 38 37 41 37 26 15 17 44 67 47 15 11 11 9 12 11 15 23 29 31 32 32 28 28 30 29 29 28 30 30 30 31 32 33 32 31 30 32 42 52 57 61 63 59 47 39 41 36 31 38 45 39 32 27 26 26
14 13 16 20 25 33 38 42 38 43 77 99 99 99 96 84 84 98 101 91 80 81 91 92 98 100 94 88 68 50 45 44 41 42 45 45 39 40 57 57 45 39 40 42 34 21 13 20 49 67 40 12 11 9 10 12 11 19 26 30 31 33 30 26 29 28 26 27 28 29 29 31 35 37 38 36 36 36 32 38 53 59 61 60 55 42 34 35 30 39 66 69 48 31 27 26 26
13 14 15 15 20 27 35 46 47 55 74 92 98 101 104 97 96 101 100 97 86 88 98 101 105 97 83 73 57 49 45 39 37 40 40 43 40 35 44 56 49 40 43 45 33 17 12 22 54 66 33 10 10 8 11 11 14 22 28 30 32 32 27 25 28 25 26 27 27 29 31 37 42 43 44 44 43 41 33 37 53 60 58 49 42 33 30 31 29 56 87 82 56 30 23 26 26
13 13 15 15 17 19 29 43 56 67 67 81 100 99 101 100 97 100 98 97 98 97 96 98 98 93 86 73 58 51 42 33 35 36 33 37 39 38 43 56 50 39 46 49 36 18 11 25 59 62 26 9 9 8 12 11 17 25 29 31 32 30 25 26 26 25 26 26 29 33 37 46 52 49 47 47 41 36 30 34 48 54 52 42 35 28 25 26 28 59 87 86 74 48 35 32 30
13 14 13 13 15 17 26 34 49 66 59 67 96 94 88 96 98 100 92 77 91 105 97 94 95 101 94 72 60 50 38 31 34 34 33 36 36 43 53 59 48 34 44 53 41 22 12 30 65 57 20 9 8 10 12 12 21 27 30 31 32 29 25 27 25 25 26 27 35 39 43 54 61 53 46 45 39 34 30 32 42 46 45 40 35 24 19 23 22 46 74 80 84 81 76 69 62
13 13 13 13 13 17 25 30 42 59 55 60 91 90 67 83 100 101 96 69 69 90 98 102 98 95 80 65 63 51 38 32 35 36 36 37 36 46 53 53 42 27 40 55 41 23 15 37 70 52 17 8 7 11 11 15 23 28 31 31 33 28 25 26 24 24 25 31 40 46 51 60 65 57 48 48 47 40 34 34 38 40 39 36 30 20 16 20 18 27 51 65 72 82 92 92 87
14 13 12 12 13 17 23 28 37 44 51 66 92 90 68 84 101 98 101 85 74 82 92 96 84 72 63 62 66 54 43 38 38 38 34 35 38 40 41 44 39 25 40 56 40 24 21 44 72 46 14 7 9 11 11 18 25 29 32 32 33 27 26 26 24 23 26 35 45 54 60 66 67 60 52 52 55 43 35 37 38 38 35 30 22 18 15 16 18 18 27 43 54 62 69 76 81
14 13 13 13 13 16 20 25 31 38 57 80 90 83 75 89 102 100 101 98 96 97 93 83 69 62 62 65 66 56 48 46 40 35 32 34 36 34 37 43 37 27 40 54 40 29 27 50 73 41 11 7 9 11 12 21 26 31 32 34 33 27 27 25 23 22 26 38 50 62 69 76 74 69 66 57 55 42 34 37 38 37 32 26 19 17 16 14 17 16 17 22 35 43 44 52 61
14 14 13 13 13 13 17 21 24 42 77 96 85 67 64 78 92 90 87 97 101 102 93 73 63 66 72 74 68 57 52 51 41 34 32 33 36 36 38 38 35 32 40 50 43 36 34 56 72 37 9 7 10 10 14 23 28 33 33 34 32 27 27 24 23 21 25 37 54 70 78 89 83 82 80 57 47 38 32 36 36 34 31 27 18 16 17 15 16 16 17 17 25 33 43 60 56
13 14 14 12 13 13 13 17 18 38 69 75 73 71 63 65 73 66 68 92 101 101 92 68 65 75 79 75 64 55 51 51 44 36 33 36 39 35 32 33 38 33 35 50 46 40 43 62 69 33 8 8 10 10 16 25 29 33 33 34 31 27 27 24 22 20 26 34 54 73 83 97 90 85 74 44 35 30 28 34 34 33 38 37 23 18 17 15 16 15 17 17 23 32 51 72 55
12 13 14 13 13 13 12 15 18 33 45 47 75 94 70 58 69 63 63 88 101 100 87 66 71 81 73 59 53 53 52 54 50 40 40 42 35 28 27 32 36 28 39 55 45 44 52 67 64 26 6 9 9 11 19 26 30 34 33 33 29 26 27 24 20 20 25 31 51 70 85 101 87 71 53 29 24 22 24 30 31 32 41 42 27 24 20 15 16 15 16 16 19 23 35 47 35
11 12 13 14 12 13 12 13 18 28 34 40 78 93 55 54 85 86 84 95 94 81 64 55 68 72 57 47 53 60 61 62 54 45 44 38 30 27 27 30 32 34 54 56 43 50 59 70 59 20 6 10 9 13 22 27 31 34 32 31 25 24 26 24 21 22 27 35 51 63 85 100 72 50 38 24 21 20 24 28 30 31 35 35 27 26 21 15 15 15 16 16 17 18 21 27 24
10 12 11 13 12 13 13 13 15 20 28 31 59 72 45 60 96 95 101 104 83 62 51 53 59 51 40 45 60 64 65 64 52 43 39 33 28 26 30 34 34 48 64 51 45 59 66 73 53 15 7 10 9 15 24 28 33 34 31 28 21 23 26 24 23 25 31 40 47 52 74 80 48 35 34 26 23 22 24 24 26 30 35 33 25 23 20 16 15 15 16 15 17 17 18 21 22
9 10 11 12 12 13 12 13 14 15 23 24 36 47 42 72 104 97 104 104 75 58 57 55 45 35 37 49 55 49 52 55 43 33 30 26 20 21 32 35 39 61 61 41 51 67 72 72 40 10 8 9 10 18 26 30 34 34 28 24 19 21 26 25 23 25 31 35 37 42 54 47 29 30 31 27 26 22 19 19 24 30 34 29 20 19 19 17 16 16 16 16 16 17 17 17 18
8 9 9 11 11 12 12 13 15 14 17 22 27 33 38 63 91 96 100 88 60 49 48 42 34 38 45 45 37 31 39 42 32 27 24 20 16 18 27 38 59 68 45 36 59 71 76 66 28 7 9 9 12 21 27 31 35 31 25 22 18 20 25 26 23 24 27 28 31 36 35 25 22 25 24 27 25 19 17 19 25 27 25 20 19 18 18 18 18 18 17 18 17 18 18 17 17
7 8 8 9 9 10 11 12 15 15 17 23 25 30 35 41 56 69 69 57 43 36 34 35 38 44 43 34 27 29 36 35 34 37 35 31 29 29 39 65 82 62 32 37 60 72 77 57 18 7 10 9 14 23 29 33 34 28 23 20 18 20 24 26 24 23 25 26 30 28 22 19 19 19 26 33 26 20 20 22 23 22 22 23 24 22 21 22 21 21 21 20 21 21 21 20 19
7 8 8 8 9 8 10 11 12 14 17 23 26 26 27 29 37 42 40 37 31 28 32 37 39 35 29 26 28 32 33 37 46 50 46 44 45 52 67 88 83 52 33 38 58 75 73 44 12 7 10 9 17 26 31 35 32 24 21 19 18 19 23 26 23 23 25 26 27 22 19 20 19 22 33 36 27 23 24 25 24 27 33 29 26 26 25 25 24 25 26 25 25 24 23 22 21
6 7 8 7 8 8 9 10 10 13 16 21 27 27 24 24 27 30 33 30 28 33 36 34 32 26 21 22 26 32 37 43 46 40 34 32 39 56 69 78 69 47 35 41 66 75 57 29 9 8 10 11 21 28 33 35 29 22 20 19 19 18 21 25 23 25 25 24 24 20 20 23 25 29 31 28 25 27 27 29 30 37 42 31 27 31 28 27 28 28 28 27 25 24 23 22 22
6 6 6 7 7 7 8 9 10 12 14 19 24 26 24 22 22 27 28 28 36 41 33 27 25 22 20 21 28 42 49 44 33 23 21 22 32 49 63 72 61 43 40 53 72 67 42 20 8 9 9 13 24 30 34 33 25 20 19 20 20 17 19 23 25 25 23 23 23 21 23 27 31 31 28 28 28 27 28 31 32 37 40 33 35 39 32 28 28 27 26 26 25 25 25 26 27
9 8 7 7 6 7 8 8 9 10 12 17 21 22 21 21 21 21 26 38 45 35 28 24 20 25 24 19 28 41 40 30 22 17 19 22 30 48 70 72 50 42 52 63 69 58 36 16 8 10 9 17 28 31 33 29 22 20 20 21 19 15 17 22 24 22 21 23 23 22 27 31 35 35 32 34 31 30 33 31 31 35 35 36 39 37 30 27 26 26 26 26 27 28 28 29 30
11 12 10 9 8 8 8 7 7 9 11 18 25 28 27 25 22 25 39 50 39 22 23 18 16 37 42 27 24 25 21 19 20 25 30 29 34 54 74 63 42 51 64 66 63 49 29 13 8 10 10 22 30 32 31 24 20 20 20 20 17 14 15 18 18 18 21 24 22 24 29 32 34 34 33 34 35 42 46 35 33 40 35 33 35 30 27 26 26 26 26 27 27 27 27 28 29
12 14 15 14 14 12 11 11 10 12 16 20 25 30 37 44 48 56 64 54 30 15 15 13 21 45 53 43 32 20 16 20 34 54 60 50 47 58 63 47 43 64 72 66 59 42 22 11 9 9 13 26 32 31 28 21 20 20 21 19 16 15 14 15 16 19 23 23 23 27 30 31 32 33 32 33 37 46 51 38 34 42 36 31 31 27 26 27 26 26 26 25 25 25 26 26 27
11 14 16 16 17 17 17 16 16 17 18 19 27 42 60 79 86 82 76 57 31 17 12 12 21 33 37 40 34 21 16 27 57 84 84 73 65 57 47 37 50 76 77 68 58 34 17 11 10 10 17 30 32 28 22 19 20 21 20 18 15 15 15 15 17 21 23 22 24 27 30 31 32 33 31 32 34 38 42 36 31 37 35 30 29 26 27 27 26 26 24 25 24 25 25 26 27
11 12 14 14 15 18 19 21 21 21 23 32 53 77 90 99 96 82 73 57 31 16 12 11 15 19 22 27 26 19 25 46 71 83 79 74 60 42 38 38 57 83 80 72 57 26 14 15 12 10 21 33 30 24 19 19 21 20 19 16 15 16 15 16 18 22 22 22 26 28 31 31 31 33 31 32 33 32 34 33 30 32 33 31 28 26 27 26 26 25 24 25 25 25 26 27 28
12 12 12 11 12 14 18 26 31 34 47 66 84 98 100 95 85 72 64 49 26 15 11 10 11 12 17 21 23 27 42 60 67 65 62 59 44 37 47 46 57 80 79 73 53 20 12 16 12 13 26 34 27 20 18 20 21 19 17 15 15 16 16 17 19 22 21 23 27 28 30 30 30 33 33 33 33 33 32 31 29 28 29 30 28 27 27 26 26 26 26 27 27 27 28 28 30
13 12 11 11 11 10 13 23 37 52 74 90 95 99 97 83 69 59 50 35 22 17 11 10 9 10 14 15 26 40 47 56 62 60 57 51 40 45 59 52 52 68 72 66 43 14 9 12 11 16 31 35 23 17 19 21 21 18 16 14 15 17 18 19 21 23 23 23 27 30 30 29 31 34 35 34 33 33 32 31 30 27 28 28 28 28 27 27 27 28 28 29 29 30 30 31 33
13 13 12 11 12 11 11 16 30 55 81 93 89 82 75 61 46 39 33 21 19 19 12 9 10 13 13 12 32 45 42 57 68 61 54 47 42 50 60 53 51 58 58 49 28 10 9 11 12 20 34 33 19 17 20 20 20 18 15 14 15 18 20 21 21 23 24 23 28 32 31 29 33 35 36 35 34 34 33 32 31 29 29 28 28 28 28 29 29 30 31 31 32 32 33 34 34
13 13 13 11 11 11 12 12 16 30 48 59 57 47 38 30 23 19 17 13 15 17 12 10 11 13 13 19 40 41 36 53 62 57 53 46 42 49 55 53 51 46 38 27 14 8 9 10 13 25 37 29 17 18 20 20 21 17 14 14 15 18 20 21 22 25 25 23 29 34 33 33 34 34 36 37 36 36 34 33 32 32 31 29 28 29 30 31 31 33 33 34 34 35 36 36 37
13 13 13 12 11 10 11 12 11 13 16 20 20 18 16 14 13 13 12 11 12 14 13 11 11 13 18 29 37 35 35 48 55 57 54 42 38 44 48 49 41 29 19 12 8 8 9 9 15 30 38 25 16 19 20 20 20 16 14 14 16 17 19 21 23 27 28 28 30 32 34 39 37 32 34 36 36 37 37 35 34 33 33 32 32 32 34 35 36 37 38 38 39 39 38 38 38
13 12 12 11 12 11 11 11 11 11 12 11 10 11 12 12 13 14 13 11 12 16 15 12 12 16 24 28 26 30 40 47 50 52 51 40 33 36 39 36 28 17 11 9 8 9 8 9 18 35 38 22 15 20 20 20 20 16 14 14 17 17 18 23 28 31 34 33 29 29 36 48 49 39 32 34 36 37 38 37 36 35 34 34 34 35 37 39 41 43 44 46 46 46 46 45 43
11 11 11 11 11 11 12 11 10 10 11 11 11 10 11 12 12 14 14 13 12 14 14 12 13 17 24 25 21 28 39 42 39 42 50 42 28 29 29 24 21 14 10 10 11 10 7 9 21 39 37 19 16 20 20 21 20 16 14 16 18 17 18 24 31 36 40 35 29 33 40 49 59 54 37 31 34 34 35 37 37 37 37 36 36 36 37 36 38 40 45 49 49 50 52 53 53
11 11 11 11 11 12 12 12 12 11 11 11 11 10 10 11 12 13 14 13 12 12 12 12 13 17 24 26 22 24 30 33 30 33 48 43 26 24 21 19 19 13 11 14 14 10 6 10 25 40 34 18 16 21 20 21 20 15 14 16 18 18 18 20 24 32 44 43 36 40 44 44 55 59 43 30 29 30 31 33 33 34 34 34 34 33 32 30 30 31 35 40 42 46 50 53 54
12 12 12 12 12 12 12 12 13 12 12 12 11 10 11 11 12 13 13 12 12 11 11 11 13 18 24 26 24 20 20 26 26 29 45 45 28 19 16 17 18 13 14 17 16 12 6 11 28 41 31 17 17 21 21 22 20 16 15 17 19 19 19 20 19 26 42 47 40 43 47 44 46 50 44 35 31 28 28 28 29 29 29 29 28 28 27 26 27 27 28 30 32 36 43 48 50
12 12 13 13 13 13 13 13 13 13 13 12 11 10 11 12 12 12 13 13 12 12 13 12 12 13 17 23 27 20 15 23 28 29 42 46 32 20 16 16 17 14 16 20 19 12 6 13 30 40 28 16 18 20 20 22 19 16 16 18 19 19 21 23 21 23 32 39 39 41 43 41 40 41 40 38 37 34 31 29 29 30 30 29 28 27 26 25 25 25 25 27 27 29 32 38 44
12 12 13 14 14 14 13 13 13 14 14 13 11 10 10 11 11 12 13 13 13 13 13 13 13 12 12 17 26 25 17 19 26 30 39 47 38 24 16 15 16 15 18 24 22 12 7 13 30 37 24 15 18 19 20 22 19 16 17 19 19 20 23 27 27 23 22 27 32 37 41 42 41 38 37 39 42 39 34 32 32 33 31 30 30 28 26 25 25 25 25 25 25 26 27 30 36
12 13 14 15 15 14 13 13 13 14 14 13 11 10 10 10 10 11 12 13 13 13 14 14 13 14 13 13 21 27 21 15 20 28 37 45 44 32 20 16 16 16 21 26 24 15 7 11 29 32 18 15 19 19 21 22 21 18 17 20 20 20 26 31 32 28 22 21 24 28 35 41 41 37 38 44 47 42 34 31 31 30 29 30 29 28 29 28 25 23 24 24 23 23 24 25 27
13 14 15 16 15 15 14 13 12 13 13 13 12 11 10 10 10 11 12 12 13 14 14 15 13 14 15 12 15 23 23 16 15 23 32 42 48 42 26 18 18 19 24 26 23 17 7 10 27 28 16 15 18 19 21 22 23 21 18 20 20 22 30 30 28 30 26 21 22 24 26 32 35 34 35 42 45 40 33 30 28 27 28 28 29 35 42 44 36 25 21 22 21 20 20 21 22
14 15 16 17 15 14 13 12 12 13 14 14 13 12 11 11 10 11 12 12 13 14 14 15 15 15 16 14 14 16 20 17 13 18 28 37 48 52 38 22 19 21 23 25 22 15 9 10 23 27 15 14 18 19 21 22 23 24 22 22 20 22 32 29 24 29 28 23 24 25 25 27 29 30 32 36 36 34 32 30 28 28 27 29 37 49 56 57 46 29 21 21 20 20 20 20 21
16 17 18 17 15 13 12 11 12 13 14 14 14 13 12 11 10 11 12 13 13 14 16 16 15 16 16 16 15 14 15 15 13 16 25 33 43 60 57 33 20 22 22 23 21 15 9 9 19 26 15 12 18 19 20 22 23 25 24 23 20 21 31 31 25 27 27 24 24 25 25 26 27 28 29 31 31 29 30 30 30 29 27 35 50 56 57 57 47 28 21 22 21 21 21 21 21
19 18 18 16 14 13 11 11 12 13 14 14 14 14 13 12 11 11 13 14 14 15 17 17 17 17 16 15 16 15 14 14 14 14 22 32 38 55 70 52 26 22 23 21 19 15 10 7 14 24 18 12 16 18 19 22 22 25 24 23 21 22 30 34 29 28 26 25 25 24 25 25 26 26 26 27 27 26 27 28 30 28 29 44 55 51 52 59 48 27 20 22 21 21 21 21 21
19 17 16 16 14 13 11 10 10 12 12 12 13 14 13 13 13 12 13 14 16 17 17 16 17 18 16 16 16 16 15 14 14 14 17 30 37 45 66 69 41 23 24 24 19 14 10 8 11 22 22 13 13 17 18 20 22 23 22 22 23 23 26 30 29 30 30 28 26 25 25 25 25 25 25 25 24 24 24 23 26 25 31 49 53 42 48 62 54 31 22 22 21 21 21 21 21
18 17 16 16 15 14 12 10 11 11 10 11 13 14 14 15 15 14 13 15 18 19 17 15 17 18 17 17 16 16 17 15 14 14 15 22 33 37 52 72 62 34 25 27 23 15 11 9 8 18 24 17 13 16 17 18 20 20 21 21 22 23 22 23 25 28 32 33 29 27 26 25 25 25 24 24 23 23 23 22 24 23 32 51 51 38 43 59 54 34 22 22 21 20 20 19 19
17 15 15 16 15 14 12 11 10 9 9 11 13 15 16 16 17 15 13 15 18 16 15 15 17 19 18 17 18 17 17 17 14 14 16 17 27 34 39 61 72 50 30 29 28 19 12 10 8 13 24 23 14 14 16 17 18 18 20 21 21 22 21 21 22 24 30 33 30 27 26 25 26 25 24 24 23 24 23 23 24 24 33 49 50 36 37 51 50 34 23 20 19 19 19 18 18
18 16 16 15 15 15 13 12 11 9 10 13 14 16 19 20 20 17 14 14 15 14 14 15 18 19 18 16 18 19 18 18 15 14 17 17 23 33 33 44 67 61 37 29 30 25 14 9 8 10 21 26 18 14 15 16 17 17 18 20 20 20 20 20 21 22 26 30 28 24 25 26 26 25 25 24 23 23 23 23 24 26 32 44 44 34 33 42 42 33 25 21 20 19 19 19 19
18 17 17 16 15 15 14 13 12 11 13 17 19 19 20 22 23 17 13 13 13 13 13 15 18 19 18 16 17 19 19 18 17 14 16 16 19 30 31 33 54 64 48 32 32 35 22 9 8 9 16 26 23 16 14 14 16 17 17 19 18 19 20 19 19 20 21 24 25 23 24 26 26 25 24 24 24 23 23 22 22 24 27 33 35 31 33 38 39 36 32 28 24 22 21 23 25
21 20 19 19 18 18 19 19 17 16 19 22 23 21 18 19 22 17 12 13 13 11 11 13 18 19 19 18 17 19 20 18 18 15 14 15 16 25 31 31 47 70 65 41 34 43 35 14 7 8 12 22 27 20 15 14 15 16 17 17 17 18 19 18 18 19 19 21 22 23 24 24 25 24 23 23 23 23 23 23 22 23 24 27 29 30 35 39 41 43 46 44 36 29 28 32 37
30 30 28 27 25 25 25 24 20 20 24 25 21 18 16 17 22 18 12 11 11 10 11 14 18 21 21 21 19 19 21 19 17 15 13 15 15 22 34 36 42 71 84 62 40 43 42 23 8 8 11 19 26 24 18 15 15 17 16 16 17 17 17 17 18 18 18 20 20 20 21 22 22 22 22 22 22 22 22 21 22 23 24 27 28 31 37 39 38 41 51 55 48 39 38 44 50
35 33 30 28 27 27 26 25 24 23 23 22 17 16 17 17 18 17 11 10 11 11 13 15 19 22 23 23 21 20 21 18 17 16 13 15 16 22 40 44 41 62 88 83 56 41 40 30 14 8 11 18 27 28 20 15 16 17 17 16 16 16 16 17 17 18 18 19 19 19 19 20 21 21 21 21 21 21 21 20 21 22 24 26 27 32 37 37 34 37 47 53 50 46 48 54 56
36 34 31 30 29 28 27 28 28 25 23 21 18 19 20 17 16 17 14 13 14 14 15 17 20 23 23 23 22 20 20 17 16 16 13 15 17 26 48 56 46 55 83 96 79 52 39 34 21 10 11 20 31 32 24 17 16 17 17 17 16 16 16 16 17 18 18 18 18 19 19 19 20 20 20 20 20 21 21 20 20 20 21 23 27 33 36 36 38 42 47 51 51 53 57 58 54
35 34 33 32 30 28 27 27 26 23 23 23 22 22 22 19 18 20 18 17 16 15 16 18 21 22 22 22 21 19 18 16 16 15 13 15 17 30 57 66 50 49 75 101 99 72 48 39 29 14 11 20 30 33 27 19 17 17 17 18 17 16 17 17 18 17 17 18 18 18 19 19 19 20 20 20 20 20 21 21 21 21 20 22 27 30 33 39 45 49 53 56 57 59 59 54 48
32 33 33 31 30 28 25 25 24 24 24 25 25 24 22 21 21 21 19 17 17 16 17 18 20 22 22 20 19 17 16 15 15 14 13 15 17 30 56 69 57 49 64 93 107 91 65 49 35 19 12 18 27 33 31 22 17 17 17 18 18 17 18 18 18 17 17 18 18 18 19 19 19 20 20 20 20 20 21 21 21 21 21 22 25 29 36 44 49 54 61 65 63 60 56 50 45
28 28 28 28 28 27 25 24 24 24 25 25 24 23 22 23 24 22 19 18 17 17 18 19 21 22 21 19 17 16 16 14 14 14 13 14 16 26 46 65 70 64 64 85 106 98 75 57 42 24 13 17 28 35 33 24 18 17 17 18 18 17 18 19 18 18 18 18 18 18 19 19 20 20 20 21 21 21 22 23 24 24 24 25 27 34 43 50 54 59 65 68 65 59 54 49 45
26 24 24 25 24 24 23 22 22 22 21 22 21 21 23 25 24 21 19 19 18 16 17 19 21 22 21 19 16 16 15 14 13 13 13 13 15 22 37 57 77 80 73 83 102 101 83 63 45 27 15 16 27 33 31 25 20 18 17 18 18 18 18 19 19 18 18 18 18 18 19 20 20 21 21 21 21 22 22 23 25 26 27 29 34 45 54 57 59 63 66 67 64 59 54 49 45
25 24 24 25 24 24 23 22 23 24 24 24 23 23 26 26 23 21 20 20 19 17 17 19 21 22 20 18 16 16 15 14 13 12 11 13 13 18 31 50 73 83 73 76 94 103 91 68 43 27 18 16 22 30 31 28 22 18 17 18 18 19 19 19 19 18 18 18 18 19 19 19 19 20 20 19 20 20 21 22 24 26 27 31 44 59 63 61 60 63 66 66 61 57 52 48 48
Wind_Speed
11 10 9 8 7 7 6 5 5 3 2 2 4 3 1 4 6 6 5 6 7 7 8 11 13 15 17 14 16 21 23 25 27 28 29 29 30 30 30 31 32 32 30 30 32 32 31 30 27 26 29 29 29 28 23 16 12 11 10 9 10 10 11 13 14 16 15 11 11 13 15 16 17 19 21 21 22 22 22 22 21 21 20 19 18 16 13 10 6 4 3 5 7 8 10 11 12
12 12 10 8 9 8 7 7 7 6 5 4 5 5 1 5 10 9 7 6 7 10 11 14 14 13 14 15 20 23 25 26 28 29 29 30 31 31 31 32 32 31 31 31 32 32 31 29 26 26 29 29 29 27 19 13 11 10 9 10 11 12 12 14 16 15 12 10 12 13 15 16 17 19 21 22 22 22 22 22 22 21 20 19 18 16 14 12 9 7 4 3 6 9 12 14 15
13 13 11 9 10 10 9 8 7 6 4 5 4 4 4 6 10 9 6 5 7 10 11 14 16 14 15 19 22 24 26 27 29 30 30 31 33 33 33 33 32 32 32 32 32 32 30 28 25 26 29 29 28 23 15 12 11 10 9 11 12 12 13 15 16 13 11 12 13 14 15 16 17 19 20 21 21 21 21 20 20 20 19 18 17 16 14 12 10 8 5 3 5 8 11 14 15
13 13 12 12 12 11 11 10 9 7 4 5 5 4 5 5 8 10 6 7 10 13 14 16 18 15 17 21 23 25 27 28 30 30 31 33 33 34 34 33 32 33 33 32 32 31 29 27 24 26 28 29 27 19 13 11 10 9 10 11 12 13 15 16 14 12 12 13 14 15 16 17 17 18 19 20 21 21 19 18 18 18 18 17 17 16 14 13 12 10 8 6 5 7 10 12 13
15 14 14 14 13 13 13 13 12 9 6 6 6 4 5 5 7 10 8 10 13 16 19 19 19 17 18 22 25 27 28 30 31 31 32 33 33 34 34 32 33 34 33 32 31 29 28 26 24 27 28 28 24 16 12 10 9 9 10 12 13 14 16 16 13 13 14 15 16 16 17 17 17 18 18 19 20 21 20 18 17 17 17 17 17 17 16 15 14 13 12 10 8 6 6 10 12
17 16 16 15 15 15 15 15 14 11 8 7 7 7 8 7 7 10 11 12 14 17 19 19 19 19 21 23 27 29 30 31 32 32 32 32 33 34 34 33 33 34 33 31 29 27 27 25 24 26 28 27 20 14 12 9 9 9 10 12 13 15 16 14 13 14 15 16 16 17 17 17 18 18 18 18 19 20 21 18 17 18 18 18 18 18 17 17 16 16 16 15 13 11 6 1 7
20 19 18 17 17 17 16 15 14 13 11 10 10 10 10 9 10 12 14 14 15 18 19 19 20 22 23 24 29 31 31 33 33 33 33 33 33 34 34 33 33 34 32 29 26 27 28 24 24 26 27 25 17 13 10 8 8 9 10 13 14 15 15 13 13 15 16 17 16 17 17 18 19 19 19 19 19 21 21 20 18 18 19 20 19 19 19 19 18 18 19 18 17 17 15 11 6
23 22 21 19 19 19 17 16 14 14 13 12 12 10 9 10 10 12 14 16 18 20 21 21 22 24 24 27 32 31 32 34 34 34 34 34 34 35 34 32 32 33 31 27 26 28 28 24 23 26 27 22 15 12 8 7 8 9 11 13 14 16 14 13 14 15 16 16 16 16 16 18 21 21 20 20 21 22 23 21 20 20 21 21 21 21 21 20 19 19 20 21 21 21 21 19 16
25 24 23 21 21 20 19 18 16 16 15 14 12 10 10 9 10 13 16 20 20 20 22 23 23 24 26 30 32 32 34 35 35 35 35 34 34 34 32 32 32 31 30 27 27 28 26 23 23 25 25 19 14 11 7 7 7 8 11 13 15 15 12 12 14 15 16 16 16 17 17 19 22 23 22 22 23 24 24 23 22 21 22 22 22 22 22 21 21 20 20 21 23 24 24 24 22
27 26 25 23 22 22 22 21 19 18 15 14 13 11 11 13 12 11 16 21 21 21 23 24 24 25 28 30 32 33 35 35 35 35 35 35 34 32 31 32 32 31 29 27 27 27 24 22 22 25 23 17 12 9 5 6 7 9 11 13 15 13 11 12 13 14 15 15 17 18 19 20 22 24 24 24 24 25 25 24 23 22 22 23 23 24 24 23 22 21 20 21 23 24 24 23 23
29 28 27 25 24 25 24 22 21 20 17 15 14 12 13 16 13 9 13 19 22 23 24 24 25 28 30 32 34 35 36 36 35 36 36 35 33 32 33 33 32 31 29 27 27 26 22 20 21 24 21 14 11 6 5 5 6 9 11 13 14 12 10 11 12 13 14 15 17 19 20 22 22 24 24 24 24 24 24 23 23 22 23 24 24 24 25 25 24 23 22 21 21 22 23 22 21
31 30 29 27 27 27 25 23 23 22 20 17 14 13 14 17 16 13 15 18 20 22 23 25 27 29 32 34 35 36 38 37 38 38 37 35 34 33 32 32 31 30 28 27 26 23 20 19 20 22 18 13 9 5 4 5 7 9 11 13 13 11 9 10 10 11 12 15 17 19 21 22 23 23 24 24 23 22 22 22 22 22 23 24 24 25 26 26 25 24 23 22 21 21 22 22 21
34 33 31 30 29 29 27 25 24 23 22 20 18 18 18 20 20 18 20 20 18 21 23 26 29 31 33 34 36 38 39 40 40 39 36 34 33 31 31 31 30 28 27 26 25 21 18 17 19 21 16 11 7 3 3 4 7 9 10 12 12 10 8 9 9 10 11 14 17 18 20 22 23 23 23 23 22 21 21 21 21 21 22 24 24 25 26 26 25 24 24 23 22 20 21 22 21
37 36 34 32 31 30 29 27 26 24 23 23 23 22 20 21 23 24 25 22 20 24 27 29 32 33 34 35 37 39 40 40 39 36 34 33 31 30 31 31 29 27 27 25 22 18 16 16 18 19 13 9 5 2 3 4 7 8 9 11 11 9 8 8 8 9 10 13 16 17 19 21 22 22 21 21 21 20 20 20 21 21 21 23 23 24 25 25 25 25 24 24 23 22 20 20 21
39 39 37 35 34 32 31 29 28 27 25 25 23 21 20 20 22 26 30 29 27 30 32 33 34 34 36 38 40 41 39 38 36 34 32 31 31 31 31 30 28 27 25 23 19 15 14 14 17 16 11 7 3 1 2 4 7 7 9 10 10 8 7 7 7 8 10 12 15 16 17 19 20 20 20 20 20 20 21 21 22 22 21 22 23 23 24 25 25 25 24 24 24 23 21 20 21
41 41 40 38 37 34 33 32 30 29 28 26 24 21 21 20 18 20 26 31 34 35 36 36 36 36 38 40 41 40 37 35 33 31 30 31 31 30 29 28 27 26 23 20 17 13 11 13 16 14 9 5 1 1 2 4 6 7 8 9 9 8 6 6 7 8 10 12 14 15 16 17 19 19 19 20 20 21 21 22 23 23 23 23 23 23 23 24 25 25 24 24 24 23 22 21 22
43 43 42 40 39 37 36 34 33 33 31 29 27 24 22 20 17 15 18 26 32 35 36 36 36 37 39 40 39 37 35 32 31 31 31 31 30 29 28 26 25 23 21 18 14 10 10 12 15 12 7 3 0 1 2 5 6 6 8 9 9 8 6 6 6 8 10 12 14 14 15 16 17 17 18 19 20 21 21 22 22 23 23 23 23 23 23 24 25 25 25 25 24 24 22 21 22
43 44 43 42 41 40 38 37 36 35 34 32 30 27 24 20 19 21 22 27 32 33 35 36 37 39 39 38 36 34 32 30 30 31 30 29 29 28 27 25 23 21 19 16 10 8 9 12 13 9 5 1 2 2 3 5 6 6 8 9 9 7 6 6 7 8 10 12 13 14 15 16 17 18 19 20 21 21 22 22 23 23 23 23 23 23 24 24 25 26 25 26 26 25 24 22 22
44 44 44 43 42 41 40 39 38 38 36 34 32 30 28 25 24 26 29 33 36 37 36 37 38 37 37 35 33 31 29 28 29 28 27 27 27 27 26 24 21 18 17 12 7 6 8 11 11 7 3 1 3 3 4 5 5 6 8 9 8 7 6 7 7 8 10 11 13 15 16 17 18 20 21 22 22 23 23 24 23 24 24 24 24 24 25 25 26 26 26 26 27 27 26 25 23
43 43 43 43 43 42 41 40 40 40 38 37 35 34 33 32 33 35 37 38 39 39 37 37 36 34 32 30 28 26 25 24 23 23 23 24 24 25 24 21 17 16 14 9 5 5 7 10 8 5 2 3 4 4 5 5 5 7 8 8 8 7 7 7 7 8 10 11 13 15 17 19 21 22 22 22 23 24 24 24 25 25 26 26 26 26 27 28 28 28 28 28 28 28 28 27 26
41 42 42 43 42 42 41 41 41 41 40 39 38 37 36 36 38 39 40 39 38 37 35 36 34 30 27 25 23 21 20 19 19 21 22 23 23 23 21 19 17 15 12 7 3 4 7 8 6 4 3 5 4 5 6 5 5 7 8 8 8 7 7 7 7 8 9 11 13 16 19 20 22 22 22 23 24 25 24 24 25 26 27 29 29 30 30 31 31 31 31 30 31 31 31 30 29
38 40 41 41 41 41 41 41 41 41 41 40 39 38 39 39 38 38 37 37 34 32 31 30 28 24 21 18 17 17 16 17 19 21 22 23 23 23 21 19 16 14 10 4 1 3 6 6 5 4 4 6 5 7 6 5 6 8 8 8 7 7 7 6 6 7 9 11 14 17 20 22 23 24 24 25 26 26 25 25 26 26 28 30 31 32 33 34 34 34 34 34 34 35 37 38 38
35 37 38 39 40 40 40 40 41 41 41 40 39 39 39 39 38 37 35 33 29 28 27 25 22 20 16 13 13 14 14 16 18 20 22 23 24 23 22 19 15 11 7 2 1 3 5 4 5 4 5 6 7 8 6 5 7 8 8 8 7 7 7 6 6 7 8 12 16 19 22 24 25 26 26 26 28 28 28 29 30 30 31 32 33 34 35 36 37 38 38 39 41 43 46 48 49
30 32 34 36 37 37 38 39 39 40 39 38 38 38 38 37 36 34 31 28 26 25 24 21 18 16 14 13 12 13 14 16 19 21 22 23 23 23 21 17 12 8 4 2 1 3 4 4 5 5 6 7 8 8 6 6 8 9 8 7 7 7 7 7 7 8 10 14 18 21 24 25 26 26 26 26 28 31 32 33 34 34 34 33 34 36 37 39 41 43 44 46 47 49 51 52 53
24 26 29 30 32 34 35 36 36 36 36 36 34 33 32 31 30 27 25 24 23 22 20 18 16 15 14 13 12 13 15 17 19 20 21 21 21 21 19 15 10 5 3 2 0 3 3 5 5 6 7 8 9 8 6 7 9 9 8 7 8 8 8 9 10 11 14 17 20 23 25 26 27 27 27 27 28 29 32 34 34 35 35 35 36 38 40 42 45 46 47 49 50 50 51 52 52
19 20 21 23 26 29 30 31 32 33 33 32 30 26 24 23 23 22 22 21 20 18 18 17 15 14 14 14 14 14 16 17 17 17 18 18 19 19 17 12 6 6 4 2 1 2 4 5 6 7 8 9 9 8 7 8 10 9 8 8 8 8 10 12 12 14 16 19 22 24 25 27 28 28 27 28 28 28 31 33 33 33 34 35 37 39 41 43 45 46 47 48 48 48 48 47 47
20 19 18 19 21 23 26 27 29 30 30 28 25 21 20 21 21 20 21 20 18 17 16 15 14 13 15 15 15 15 16 16 14 14 16 17 18 17 14 8 6 7 5 3 2 3 5 6 6 8 10 10 9 8 8 9 10 9 9 9 9 9 12 14 15 16 18 21 22 24 25 27 28 28 28 28 30 31 32 33 32 32 33 35 37 39 40 42 43 44 44 44 43 42 41 40 40
21 20 19 19 19 20 21 24 25 26 26 24 21 19 20 21 21 21 20 19 18 16 15 15 14 13 14 14 14 14 16 15 13 15 17 18 18 14 9 4 7 9 6 3 3 4 6 6 8 10 11 10 9 8 9 10 11 10 10 10 10 12 14 15 17 19 21 23 23 24 25 26 27 27 27 28 30 32 32 32 32 31 31 34 37 38 39 40 40 40 39 38 37 37 35 34 34
21 21 21 20 20 19 19 20 23 24 23 22 21 21 20 19 20 21 21 19 18 17 15 15 14 13 13 12 12 12 12 13 14 16 17 17 15 8 3 3 8 10 7 4 4 5 7 7 9 11 12 11 9 9 10 11 11 11 11 10 11 14 16 17 18 20 22 23 24 25 25 25 25 26 26 26 29 31 31 31 31 30 31 33 35 36 37 37 36 34 33 33 32 32 30 28 28
21 22 22 21 21 20 18 19 22 23 24 23 23 22 20 19 21 22 22 20 19 17 15 15 14 13 12 11 11 10 10 12 15 17 16 15 11 4 1 4 8 9 7 5 5 6 7 8 11 13 13 11 9 9 11 12 12 12 12 11 13 16 17 18 19 20 22 23 24 24 24 24 25 26 25 25 28 30 30 30 29 29 30 30 32 33 33 32 30 29 27 27 27 26 23 22 22
24 23 23 23 23 21 20 20 22 24 25 25 25 24 23 21 21 23 22 20 19 17 16 15 14 13 12 11 10 9 9 10 13 15 13 11 8 2 2 5 8 9 7 5 6 7 7 9 12 14 13 11 10 10 11 13 12 13 13 12 15 17 17 18 20 21 22 22 23 23 22 23 25 26 26 25 27 28 29 28 27 27 27 27 28 28 27 26 24 23 22 22 21 19 17 17 18
27 26 26 26 25 23 22 23 23 24 25 27 27 26 24 23 21 22 22 21 19 18 17 16 14 13 13 11 9 9 9 9 12 14 11 8 5 1 3 6 8 7 7 7 7 7 8 10 14 15 13 11 10 11 12 13 13 14 14 14 16 17 17 18 20 21 21 21 20 20 21 23 25 25 25 25 25 26 27 26 25 24 23 23 23 22 20 20 19 17 17 17 16 14 14 15 16
32 31 31 29 27 25 24 24 24 24 25 27 27 26 24 22 21 22 23 22 20 18 18 17 15 13 13 11 9 9 9 10 12 12 9 6 2 2 4 6 7 6 8 8 7 7 8 12 15 15 13 11 11 11 13 14 14 15 15 16 17 18 19 19 20 20 19 19 18 19 21 23 24 24 24 24 24 24 24 24 23 22 20 19 18 18 17 17 16 16 16 15 14 13 13 13 14
38 37 34 32 29 27 25 26 25 24 26 27 26 25 24 23 21 22 23 23 21 19 18 17 15 13 12 10 9 9 10 11 11 10 7 4 0 3 4 6 7 7 7 7 6 6 9 14 16 16 13 11 12 12 13 14 15 16 16 17 18 19 20 20 20 19 18 18 18 19 21 22 22 21 21 22 22 22 22 22 21 20 19 18 17 17 18 18 18 18 19 19 19 18 16 14 11
42 39 36 33 31 28 27 27 26 25 26 26 26 25 24 23 22 22 23 23 22 20 18 17 15 14 12 10 8 9 10 11 10 9 6 3 2 4 5 6 8 8 7 6 5 6 11 15 16 16 13 12 12 13 14 15 15 17 17 18 19 19 20 20 18 18 18 18 18 19 20 20 19 18 19 19 20 20 20 20 20 19 18 18 18 18 18 19 19 20 21 22 23 23 22 20 16
42 39 38 35 32 30 29 28 27 28 28 28 28 26 24 24 23 23 24 24 23 21 19 17 15 14 13 10 8 9 10 10 10 7 4 3 3 4 6 7 8 9 7 5 4 6 12 15 17 17 14 13 13 13 15 15 16 17 18 18 19 19 19 18 16 15 16 17 18 19 18 17 16 17 17 17 18 17 17 17 17 17 17 17 17 17 18 19 19 20 21 21 21 23 24 24 23
43 41 39 37 35 33 32 30 30 30 30 31 30 26 25 26 24 23 24 24 24 22 20 18 16 15 14 11 8 9 10 10 10 7 3 2 3 5 6 8 9 10 9 6 4 6 12 16 17 17 14 13 14 14 16 16 17 18 18 19 19 18 18 17 16 15 16 17 18 18 17 16 16 17 16 16 15 15 15 15 15 14 15 15 15 16 17 18 18 19 19 19 20 20 22 23 24
46 44 42 40 39 38 35 33 33 33 32 34 33 29 27 27 25 24 25 25 25 23 21 20 18 16 14 12 11 10 10 10 10 7 3 3 4 5 7 8 10 10 10 7 5 7 13 17 19 18 16 15 15 15 16 17 18 19 19 19 18 18 18 17 16 16 17 18 18 17 16 16 16 16 15 14 13 13 13 13 12 12 12 13 14 15 15 16 16 17 17 18 18 19 20 22 23
48 46 44 43 43 42 39 36 36 36 36 36 35 33 30 29 27 25 25 27 26 25 23 21 21 18 16 14 13 12 11 11 10 8 4 4 5 5 7 9 10 11 10 8 5 7 13 18 20 19 18 17 16 15 16 16 18 19 19 18 18 18 18 17 16 16 17 17 18 17 16 16 15 14 14 13 12 12 11 11 10 10 10 11 12 13 14 14 15 15 16 16 17 18 19 19 20
50 48 46 46 46 44 43 41 40 39 40 39 37 36 33 30 28 26 27 28 27 26 24 24 23 21 18 16 15 13 13 12 11 9 6 6 6 6 7 9 10 10 10 8 5 7 13 18 20 20 19 18 17 16 16 17 17 19 19 19 18 18 17 16 16 17 17 17 17 16 15 15 15 14 13 12 12 11 10 9 9 9 9 10 11 12 13 13 14 14 14 15 16 17 17 17 18
52 49 48 50 50 48 47 45 43 41 41 40 39 37 34 31 29 29 29 28 27 27 26 26 25 22 21 19 16 15 15 14 13 11 8 8 8 8 8 9 10 11 10 8 6 8 13 18 21 21 20 19 19 18 18 18 18 18 19 19 18 17 16 15 15 17 18 17 17 16 15 16 15 14 13 11 11 10 10 8 7 7 8 9 10 11 12 12 13 13 13 14 15 16 16 16 17
52 51 51 53 52 52 51 48 45 42 41 41 40 38 36 34 31 30 30 28 29 28 27 27 26 24 23 20 18 17 17 17 15 12 10 9 11 10 10 11 12 12 11 9 8 9 15 20 22 22 21 20 20 19 19 19 19 19 19 19 19 18 16 15 15 17 18 18 17 16 15 15 15 14 13 11 9 9 8 8 7 6 7 8 9 10 10 11 11 11 12 13 13 15 15 16 16
53 53 54 55 54 54 53 50 47 44 43 43 42 40 38 37 34 31 30 30 30 29 28 29 28 27 25 22 21 20 19 19 18 15 12 11 13 13 12 12 13 14 13 11 10 11 17 22 23 23 22 21 21 20 20 20 20 20 20 20 20 19 17 16 16 17 18 18 17 16 15 15 14 14 13 11 9 8 7 7 6 6 6 7 8 8 9 9 10 10 10 11 12 14 15 16 16
55 57 57 57 56 57 56 53 50 47 47 45 43 41 39 38 36 32 31 31 31 31 31 32 31 29 27 24 23 22 20 19 19 17 14 13 14 15 15 14 15 16 15 14 12 12 17 22 24 24 23 23 22 22 22 21 21 21 21 21 20 19 18 18 17 17 17 17 17 17 15 15 14 14 14 13 11 9 7 6 6 5 5 6 6 7 7 8 8 9 9 10 11 12 14 15 15
60 61 59 58 59 58 57 55 52 51 49 45 43 42 40 39 39 35 32 32 33 34 34 34 33 31 29 27 25 25 22 20 20 20 18 16 16 17 17 17 16 17 16 14 12 12 18 23 25 25 24 24 24 23 23 23 23 23 22 21 20 20 20 19 19 18 18 18 17 16 16 15 14 14 14 13 12 10 9 7 6 6 6 5 4 5 6 6 7 7 8 8 9 10 12 13 14
64 64 61 60 60 60 58 56 54 52 48 45 44 43 41 40 41 37 33 33 35 38 37 35 34 34 32 29 27 26 25 22 21 21 21 19 18 18 18 18 18 18 18 16 14 14 20 25 26 26 26 25 25 25 24 24 23 23 23 22 21 21 21 20 19 19 19 18 17 17 16 15 14 14 13 13 12 11 10 9 7 6 6 5 2 4 5 5 5 6 6 7 8 10 11 12 13
67 65 62 62 61 60 59 57 56 52 47 45 45 44 43 41 41 40 37 37 39 40 38 36 35 36 35 31 28 27 27 24 22 23 24 23 21 19 18 19 20 20 20 20 17 16 21 27 27 26 27 27 26 26 25 25 24 23 23 22 22 22 21 20 20 19 19 19 18 17 17 16 15 14 13 12 12 11 10 9 8 7 7 6 3 1 3 4 4 5 5 6 8 9 11 12 14
68 65 63 63 62 61 60 58 55 50 46 47 46 45 44 41 42 43 41 41 41 41 39 36 36 38 38 33 29 28 28 26 23 24 26 26 23 20 19 20 22 22 22 22 19 16 19 25 28 27 27 28 28 27 27 26 25 24 23 23 23 23 22 21 21 20 19 19 19 18 17 16 15 15 14 13 12 11 10 9 8 8 8 8 5 3 2 2 3 4 5 6 8 9 11 13 14
68 67 65 64 63 62 59 57 54 50 48 49 49 47 44 42 45 48 44 43 43 42 40 37 37 39 41 36 30 29 28 26 25 26 29 29 26 23 21 21 23 23 23 24 22 17 17 23 27 28 28 29 29 29 28 27 26 25 24 24 24 23 23 22 22 21 20 20 19 19 18 16 16 16 15 14 12 11 10 9 9 9 9 8 7 5 4 3 3 4 5 6 8 9 10 12 14
68 68 66 64 63 61 58 57 55 52 52 54 53 50 46 45 49 51 47 45 45 43 39 36 36 39 41 39 33 29 29 28 27 28 30 31 29 26 23 22 23 24 24 25 25 21 19 23 28 29 29 30 31 30 28 27 27 26 25 25 24 24 24 23 22 22 21 21 20 19 18 18 17 17 16 14 13 12 11 10 10 10 9 8 8 7 6 5 4 5 6 6 8 9 10 11 13
70 69 67 66 63 60 59 59 58 56 57 59 57 52 48 48 52 54 50 47 45 42 37 35 36 37 40 40 35 30 29 29 29 30 31 32 31 28 25 23 23 25 25 26 27 25 22 25 28 30 30 30 31 30 28 27 27 26 26 26 25 25 24 23 22 22 22 21 21 20 19 19 18 17 16 15 13 13 12 11 11 10 10 9 9 8 8 7 7 7 7 7 8 9 10 11 13
73 72 71 66 62 61 62 62 61 60 61 60 57 52 49 52 56 55 52 47 43 40 37 35 36 36 38 40 37 31 29 30 32 33 33 33 33 30 27 24 23 26 27 27 28 27 24 25 27 30 31 31 31 31 29 27 27 27 27 26 26 25 24 23 23 23 23 22 21 21 20 20 19 18 17 16 14 13 13 13 12 12 11 10 10 10 10 10 10 10 9 9 9 9 11 12 14
76 75 69 64 64 66 66 64 63 63 60 57 55 52 52 54 55 53 51 47 42 39 36 35 35 35 35 38 38 32 30 31 34 35 34 34 34 31 29 26 24 26 28 28 29 28 26 25 26 30 32 32 33 32 31 29 28 28 28 27 27 26 25 24 24 24 24 23 22 21 21 20 20 19 17 16 15 15 14 14 13 13 12 12 11 11 11 11 11 11 11 10 10 11 12 14 15
78 74 68 68 71 71 68 66 65 62 58 56 56 55 54 54 53 52 51 47 43 39 37 36 36 34 33 36 39 34 31 33 35 36 35 36 36 33 31 29 26 26 28 30 30 30 28 28 28 31 34 35 35 34 33 32 31 30 30 29 28 26 25 25 26 25 24 23 23 22 22 21 20 19 18 17 17 16 15 14 14 14 14 13 13 13 13 12 12 12 12 12 12 13 13 15 16
78 74 72 75 74 70 67 65 63 60 58 58 59 57 55 54 54 54 52 48 44 41 39 38 36 35 34 36 40 38 34 34 36 36 36 38 38 36 34 32 28 27 29 31 33 33 32 30 30 33 36 36 36 35 35 33 33 32 31 30 29 28 27 26 26 26 25 24 24 23 22 21 20 19 19 18 17 17 16 15 15 15 15 15 15 14 14 13 13 12 13 13 14 14 15 16 18
78 77 77 76 73 70 68 66 64 63 62 61 61 59 55 55 56 56 52 48 45 42 40 39 37 36 36 38 43 42 37 36 38 37 38 40 41 39 36 34 31 29 29 31 33 36 35 33 33 34 36 37 38 37 37 36 35 33 32 32 31 30 29 28 27 26 26 25 25 24 23 22 21 20 19 19 18 17 16 16 15 16 16 16 16 16 15 14 14 14 13 14 15 16 16 18 20
78 77 76 75 73 72 70 67 65 65 64 62 61 58 56 58 59 56 52 48 46 42 40 39 38 38 38 39 45 46 41 40 41 39 39 41 43 42 39 36 34 32 30 31 33 36 37 35 34 34 36 39 40 39 39 37 36 35 34 33 32 31 30 29 29 28 27 27 26 25 24 23 22 21 20 19 18 17 17 17 16 16 16 17 17 16 16 16 15 15 15 15 16 17 18 20 22
79 77 75 74 73 72 70 66 63 63 61 61 60 57 58 60 59 55 51 48 46 43 40 39 38 38 39 41 46 48 44 42 43 41 40 41 43 44 41 38 37 34 31 30 33 36 37 36 35 35 37 39 41 41 40 38 37 36 35 33 32 31 31 31 31 30 30 28 27 26 25 23 23 22 21 20 19 18 18 18 18 17 17 17 17 17 17 17 17 17 17 17 17 18 20 22 24
Wind_Direction
220 224 224 220 218 216 217 232 249 236 200 173 128 117 28 322 283 273 284 277 283 271 259 268 270 274 279 291 307 319 326 327 330 331 332 334 335 337 337 338 338 340 341 341 342 340 339 340 342 342 340 338 337 338 338 342 351 1 10 30 42 37 24 11 359 354 357 8 20 28 41 47 47 51 53 54 56 57 57 58 59 59 60 59 59 57 55 51 43 19 322 282 264 252 245 237 232
223 225 229 228 227 227 225 232 246 239 214 185 132 107 110 268 255 256 263 254 269 270 269 274 276 280 285 302 314 321 327 327 330 332 333 335 335 335 335 336 337 341 341 340 342 341 340 341 343 342 340 338 338 339 341 345 356 7 21 40 45 36 22 9 359 359 10 26 34 43 53 53 51 52 53 55 56 56 58 59 60 61 60 60 59 58 57 54 52 44 20 311 272 257 250 244 239
229 229 231 234 237 235 236 241 244 240 216 202 185 151 185 237 261 267 264 264 267 265 268 269 275 292 303 310 315 321 326 327 329 331 332 333 333 333 334 336 338 341 340 340 340 340 339 341 343 342 340 339 339 341 342 348 3 16 31 47 45 34 19 7 3 11 29 41 49 57 60 56 53 53 53 53 54 54 56 58 59 59 59 58 56 54 53 51 47 38 24 345 283 260 250 245 241
236 236 234 234 239 241 245 247 244 246 244 234 217 181 189 222 274 278 276 283 267 261 271 272 278 299 312 311 314 320 324 325 327 330 330 330 331 333 334 336 339 341 340 339 338 338 340 342 343 342 340 339 341 342 343 353 12 25 42 51 43 30 15 7 12 30 47 56 63 65 62 56 53 52 51 52 52 52 53 57 59 59 57 55 51 49 49 46 40 30 18 355 311 273 253 245 240
239 241 239 237 240 243 247 247 247 251 252 240 214 196 229 238 266 272 269 267 263 265 275 279 279 288 298 302 311 318 321 323 326 327 327 328 330 333 335 337 339 341 340 338 337 339 341 342 343 341 340 340 342 342 344 1 22 34 50 51 41 26 13 12 28 50 62 70 72 68 61 55 50 47 48 49 49 48 49 54 58 58 56 53 49 46 47 46 39 31 24 13 354 326 269 243 235
240 242 242 243 245 244 244 246 248 244 234 227 224 221 234 248 258 263 262 255 261 268 276 278 274 281 291 298 309 315 319 321 323 324 325 327 329 331 333 335 337 339 339 338 338 341 341 341 342 341 339 340 342 342 347 10 30 44 55 49 38 23 15 23 47 65 74 77 72 66 60 52 47 44 45 46 46 44 44 51 57 58 55 51 48 47 49 47 42 37 35 31 24 23 31 184 213
240 242 242 244 246 247 246 248 250 244 234 229 242 238 230 249 263 265 262 254 256 262 268 270 273 286 292 298 309 313 316 318 319 320 322 324 326 328 329 331 334 337 339 339 340 343 341 339 341 340 339 339 341 343 352 20 38 53 56 48 36 21 20 37 62 75 80 76 69 63 57 50 45 44 45 45 45 42 42 48 55 56 53 50 49 50 51 50 47 45 46 46 44 46 54 70 111
241 242 243 243 245 250 249 249 249 246 242 240 246 248 247 253 252 252 261 267 264 259 260 265 277 288 289 299 309 311 312 315 316 316 318 321 324 327 328 329 332 336 339 339 341 343 340 338 340 339 339 339 340 345 360 29 46 62 55 46 35 22 27 51 72 81 80 72 65 59 54 48 44 43 45 45 44 41 42 47 52 54 53 51 51 52 54 54 53 52 54 57 58 60 65 71 81
242 243 244 246 248 251 249 248 249 246 245 246 244 247 257 245 227 235 256 270 269 263 261 266 278 285 290 300 307 308 309 312 312 314 316 319 323 325 327 328 331 335 337 337 339 341 338 336 339 339 338 338 341 346 9 35 55 65 54 47 33 24 35 61 78 83 77 67 60 54 49 44 41 42 44 44 42 41 41 46 51 54 54 54 54 55 57 58 57 57 59 62 66 68 71 74 76
240 243 245 247 249 250 247 246 247 248 252 252 242 237 249 247 240 245 251 258 263 266 266 270 280 288 293 300 304 306 308 309 310 312 315 318 321 322 323 325 329 332 333 334 336 339 336 335 338 338 337 337 341 349 17 40 64 65 53 47 33 27 43 66 80 83 75 63 56 50 45 41 39 40 42 42 40 40 41 45 50 54 56 56 57 59 60 61 60 61 62 65 68 70 72 73 73
237 240 244 245 248 248 247 247 247 250 256 254 241 234 242 246 253 263 259 261 266 267 268 276 286 291 295 299 302 304 307 308 309 310 312 315 317 318 320 321 325 329 330 332 335 337 333 333 337 337 335 335 342 349 23 46 69 65 54 48 34 31 48 67 81 82 71 60 53 48 44 39 38 39 40 40 39 39 42 45 50 55 57 57 59 60 61 62 61 62 63 65 68 70 71 72 71
237 238 241 243 245 247 248 249 249 251 252 245 235 239 240 239 251 267 270 269 263 263 271 281 290 293 296 299 300 303 305 305 306 308 310 312 314 316 318 321 324 326 328 330 334 336 332 332 336 336 332 335 342 350 29 54 76 66 56 50 37 36 54 68 80 80 66 57 51 46 43 38 36 37 38 38 38 39 43 47 51 55 58 57 58 59 61 61 61 61 62 63 67 70 72 72 72
237 239 240 242 243 245 248 248 248 249 247 239 237 248 245 240 252 264 274 276 263 267 280 286 293 295 298 299 299 302 302 302 304 305 307 310 311 314 318 321 323 324 326 329 333 334 330 331 334 334 330 335 341 355 38 67 82 66 58 53 40 41 59 69 78 76 63 55 49 43 41 37 35 35 36 37 38 40 45 51 54 57 59 58 57 57 59 60 60 60 60 61 64 69 72 72 69
238 239 240 241 243 245 247 248 248 247 245 245 247 253 249 247 255 260 268 272 266 273 283 288 293 295 296 298 298 300 301 300 301 302 304 307 310 312 316 320 322 323 324 328 333 333 330 330 333 331 327 335 341 13 51 84 87 67 60 55 45 48 62 70 75 72 61 53 45 39 38 36 33 34 37 39 41 45 50 55 57 59 60 59 57 57 57 58 60 60 61 62 63 66 69 70 66
237 237 239 240 242 244 246 248 249 248 247 249 250 251 252 254 261 265 266 263 265 274 281 286 291 292 295 296 297 298 298 298 299 300 303 306 308 310 312 316 320 322 323 329 332 332 330 330 332 327 323 334 341 49 68 104 91 67 60 57 51 55 66 72 72 67 57 50 40 34 36 36 33 36 41 44 48 52 56 60 61 60 60 59 58 58 58 58 60 61 62 64 65 66 66 67 66
237 237 238 238 240 242 244 247 248 249 248 247 247 250 259 265 266 271 270 261 263 272 279 285 289 291 294 296 296 296 295 296 298 300 303 305 307 309 311 315 319 321 324 328 330 330 329 329 330 323 321 333 339 88 101 113 90 67 60 58 57 59 70 75 69 60 53 46 38 33 36 35 34 41 47 49 54 58 61 64 64 63 62 61 59 60 59 59 61 62 63 65 67 68 67 67 68
237 237 239 239 240 240 242 244 247 249 249 248 246 250 259 259 248 245 258 262 267 275 280 285 289 292 294 295 295 294 293 295 299 301 302 304 305 308 312 315 319 321 324 325 326 328 329 330 326 317 317 326 166 122 128 115 86 65 60 60 62 65 72 74 66 56 51 46 38 34 36 36 41 51 55 55 59 60 62 64 66 66 65 62 60 61 61 60 62 63 64 66 67 69 69 69 69
234 237 239 240 240 240 241 243 246 248 251 252 249 251 252 245 237 231 243 266 278 282 284 287 290 291 293 293 294 293 292 294 298 301 301 301 303 307 310 315 318 320 321 321 323 328 330 330 321 309 308 293 158 146 137 112 82 63 60 62 66 74 75 76 67 54 52 47 37 34 39 45 53 60 62 61 62 62 62 64 66 68 68 65 63 64 64 63 63 64 65 66 68 69 71 72 72
236 237 238 239 240 240 241 243 245 248 252 255 254 253 249 242 243 246 255 270 280 284 287 290 292 291 291 292 292 291 291 293 298 302 302 301 302 305 308 313 316 319 320 317 321 327 329 327 315 299 289 192 157 154 136 109 80 63 62 63 68 77 78 77 70 58 54 44 34 40 51 59 64 67 68 67 65 65 64 65 68 69 69 69 68 66 65 65 64 65 65 67 69 70 72 74 75
239 240 240 241 241 240 240 241 244 248 251 254 255 255 252 248 249 255 264 272 278 282 288 292 291 290 291 292 291 290 291 295 301 306 308 307 306 306 308 312 315 318 318 312 319 326 328 324 305 284 256 171 158 153 132 107 75 64 65 65 69 78 82 82 72 62 55 41 40 54 65 68 70 71 71 69 67 67 67 69 72 73 71 69 68 67 67 66 66 67 67 69 71 72 74 75 76
240 241 242 242 243 242 240 239 241 245 248 251 253 254 255 254 254 259 266 272 278 284 289 290 288 288 289 290 291 291 293 299 305 310 311 311 310 309 309 310 312 315 311 304 318 330 328 317 289 265 216 164 157 149 130 104 73 69 69 69 72 78 88 89 77 66 51 45 56 68 73 73 73 73 72 70 69 71 71 72 74 74 72 69 69 70 69 70 70 70 71 72 74 75 75 75 74
240 241 242 242 243 242 241 240 240 241 245 248 251 253 254 255 258 262 267 273 280 284 286 285 284 286 287 288 291 293 299 304 306 308 309 310 311 311 310 309 308 308 299 292 334 337 326 303 269 247 195 161 154 145 127 99 77 75 73 72 74 80 94 96 84 67 53 59 73 77 77 77 76 76 75 74 74 74 73 74 75 76 74 72 72 73 72 73 74 74 75 76 77 78 78 78 77
241 242 243 243 242 243 242 242 241 241 244 248 251 253 255 257 259 263 268 274 278 280 281 281 281 283 282 283 289 293 297 301 303 306 308 310 311 310 311 308 305 299 282 254 42 333 318 277 251 231 185 157 152 142 125 100 83 79 77 77 77 83 98 103 92 74 66 76 83 83 82 81 80 79 77 77 77 76 76 76 76 78 77 75 74 75 74 76 78 79 81 82 83 84 84 83 82
241 242 243 244 244 243 243 243 242 243 245 248 251 253 256 258 260 263 267 270 274 276 277 277 278 278 278 280 284 289 295 299 304 307 308 308 307 308 309 306 302 285 251 163 71 323 298 250 238 216 177 153 151 141 123 103 90 83 80 81 80 85 98 105 100 87 83 88 89 89 87 84 81 79 77 79 80 79 77 76 77 79 79 77 77 78 80 83 85 86 87 88 88 88 87 86 84
237 241 243 244 243 243 243 243 243 244 244 246 248 251 254 256 259 262 263 266 271 273 272 274 275 277 282 285 288 295 301 305 307 309 308 306 304 305 305 303 293 251 199 146 213 301 262 230 226 202 168 151 151 139 123 107 95 87 85 86 82 86 99 104 101 96 95 96 94 92 89 84 82 79 77 81 83 80 77 76 77 79 80 81 82 83 86 89 91 91 91 90 89 88 87 86 84
232 235 239 242 242 242 241 241 241 240 240 241 242 245 249 252 255 256 258 263 267 269 269 272 273 277 285 289 295 304 308 310 312 314 314 309 305 303 302 299 268 203 171 155 211 261 229 218 214 188 160 152 150 136 124 111 98 92 91 89 84 91 102 104 102 100 100 101 99 95 90 85 82 78 77 79 81 80 79 78 77 79 82 85 88 90 92 94 94 93 92 91 89 88 86 84 82
232 230 232 236 239 239 238 238 237 236 236 237 237 238 240 242 245 249 254 258 261 263 267 270 272 276 283 288 296 307 313 314 317 320 319 314 308 303 301 290 221 182 166 176 204 224 214 210 202 176 156 154 150 136 128 112 101 99 98 94 92 101 106 105 104 104 104 105 103 98 92 87 83 78 76 79 80 80 81 80 79 82 87 91 93 95 97 96 95 94 92 91 89 87 85 83 80
235 231 230 231 233 235 235 235 235 235 234 233 231 230 233 237 241 246 251 255 257 261 266 271 273 276 281 287 296 310 315 318 320 321 320 316 310 306 300 267 197 177 164 182 205 209 206 205 191 168 155 156 151 139 127 111 105 106 104 102 104 110 110 108 108 109 109 108 105 99 94 90 84 79 77 80 83 82 83 82 82 85 91 96 98 99 99 98 95 93 91 90 89 87 84 81 78
239 237 233 232 232 232 231 231 231 230 230 229 227 225 229 238 245 247 250 254 256 259 266 272 275 278 283 290 300 310 317 320 322 323 324 320 314 309 296 210 187 174 163 183 204 201 205 202 183 163 155 158 151 139 126 112 111 113 110 110 115 117 114 111 113 113 111 110 106 100 95 91 86 83 81 82 85 86 85 85 85 89 95 100 101 101 100 97 94 90 88 88 88 86 82 79 78
240 240 238 235 235 234 231 228 226 225 226 226 227 227 229 237 246 249 251 254 256 259 265 271 275 278 285 291 295 303 314 322 327 330 330 325 320 317 169 170 174 167 163 184 198 197 205 197 177 159 155 158 151 140 125 117 118 118 116 118 123 122 117 115 115 116 115 112 107 101 96 91 88 87 85 86 88 88 88 87 88 92 97 101 102 102 99 95 90 86 83 83 84 82 78 74 74
240 242 242 239 236 234 232 229 225 224 226 229 231 233 234 237 243 249 252 255 255 257 264 268 273 277 282 286 287 298 316 326 333 336 333 328 329 350 128 141 151 155 162 181 190 195 205 191 172 158 157 160 151 139 127 122 125 123 122 125 128 127 124 119 118 118 118 116 110 103 98 93 93 92 90 89 89 90 91 91 91 92 95 99 102 100 95 90 85 79 76 76 77 76 72 69 69
241 241 242 241 238 234 233 233 231 228 229 232 234 236 238 238 241 246 251 254 254 256 262 266 270 276 282 286 288 300 317 331 338 339 337 333 340 72 127 129 136 150 162 172 182 194 202 187 168 157 160 161 150 139 129 128 130 128 128 131 132 130 128 125 122 120 118 116 111 104 100 99 99 97 94 92 92 92 94 95 96 95 95 99 100 96 89 84 77 71 67 67 67 63 61 63 64
240 239 239 240 241 238 236 237 236 235 236 237 238 239 241 241 242 247 252 256 256 257 261 266 271 276 283 289 295 305 320 334 338 339 340 338 360 116 131 133 136 154 164 166 179 198 197 182 166 158 163 162 149 141 133 134 135 133 134 136 135 133 130 128 125 122 118 116 112 107 106 106 103 101 99 97 96 95 95 98 100 100 100 100 97 92 86 81 75 70 66 63 59 53 51 53 55
236 236 236 237 239 240 241 241 240 239 242 243 243 242 244 244 245 250 255 258 259 259 262 268 273 275 280 290 302 313 319 328 335 336 338 335 181 146 149 148 146 157 167 168 179 199 191 179 166 158 165 163 150 142 137 138 139 138 140 141 139 137 133 130 126 122 119 117 114 112 112 112 107 103 103 101 98 98 97 98 100 100 101 99 96 92 86 80 74 69 66 62 58 54 51 50 46
234 235 237 237 238 241 245 247 246 245 245 247 248 247 247 248 248 250 255 259 260 261 264 270 274 273 274 286 301 309 311 319 328 331 334 323 225 169 164 166 157 157 170 177 184 200 189 178 167 159 165 164 150 144 141 142 144 143 145 146 144 142 140 137 133 126 122 120 118 117 117 118 112 109 108 105 102 101 100 99 98 98 97 95 93 88 83 77 70 65 61 59 55 53 52 52 50
236 238 239 239 240 241 244 248 251 251 250 250 249 250 251 252 250 250 253 258 261 262 264 268 270 270 269 274 290 297 300 308 319 326 328 303 235 185 172 174 167 161 170 187 199 202 190 178 166 160 165 163 152 148 146 146 149 148 149 150 149 147 146 146 143 138 135 131 127 124 123 123 119 118 116 111 109 106 102 100 97 95 93 89 86 82 77 72 67 62 58 56 53 50 50 50 51
237 238 240 241 240 240 241 245 249 251 252 252 250 249 252 253 252 253 256 259 262 263 265 266 264 264 267 270 274 283 290 298 310 320 318 274 233 195 178 176 175 169 170 186 209 209 193 179 167 162 165 164 158 154 152 151 153 153 153 155 154 151 151 150 148 146 145 143 139 133 130 129 125 125 124 120 116 111 105 101 97 93 88 83 79 74 70 67 63 59 55 52 50 48 47 47 47
235 236 237 239 240 239 238 240 245 248 249 251 250 247 247 252 253 253 256 259 262 264 265 266 264 264 266 267 265 270 282 289 300 308 285 235 224 201 185 178 180 178 176 182 200 212 198 182 170 165 167 168 163 158 156 155 156 156 157 159 158 157 155 154 151 149 148 148 147 142 137 136 133 131 130 127 123 116 109 103 97 90 83 78 73 69 65 61 58 55 51 48 46 44 42 43 42
235 236 237 239 240 239 237 237 241 245 246 247 248 246 244 247 250 252 255 258 261 263 264 265 266 266 264 263 261 262 272 279 288 293 266 224 220 213 198 184 183 185 182 182 194 209 202 188 175 168 170 171 165 160 157 156 158 160 161 162 163 163 161 160 158 157 155 153 152 148 144 143 140 137 135 132 127 120 113 108 101 91 80 73 69 65 60 57 54 51 47 45 44 43 41 40 39
236 236 236 238 239 238 236 235 237 241 245 245 246 246 245 245 249 252 254 257 260 262 265 266 268 269 267 264 261 258 265 271 275 278 265 232 218 217 210 193 185 189 187 183 195 212 205 195 183 174 174 172 166 163 160 158 161 163 165 167 168 168 167 166 166 165 163 161 159 157 153 151 148 144 142 137 129 125 120 114 106 95 80 70 65 62 57 53 50 47 45 44 43 44 43 41 39
236 236 236 238 238 237 236 234 235 239 245 248 248 248 248 248 248 251 253 256 260 262 264 267 269 270 269 268 265 259 261 266 266 268 262 239 221 215 214 202 189 191 192 186 195 211 207 201 191 180 176 175 170 167 164 162 163 165 169 171 172 172 172 171 170 169 169 167 166 165 160 156 154 151 149 144 136 129 127 122 112 98 82 72 67 60 53 49 45 44 43 42 42 43 43 41 40
236 236 237 238 238 237 237 235 235 237 242 248 249 249 249 248 247 250 254 256 258 260 262 265 267 268 268 268 267 260 258 262 264 262 258 244 228 218 216 212 199 192 191 191 198 207 204 203 198 187 180 178 175 171 169 167 165 167 171 175 177 177 175 172 170 170 171 171 170 169 166 162 160 158 156 153 147 139 135 132 122 105 86 77 69 56 47 43 41 42 42 39 38 40 41 41 41
235 236 236 237 237 238 237 236 235 235 238 243 247 248 249 249 247 249 254 256 257 259 261 263 263 264 264 265 264 261 257 259 262 259 255 245 232 222 218 216 209 199 190 189 199 208 204 204 204 195 184 181 180 177 175 171 169 171 174 178 182 180 176 174 173 173 174 174 174 173 171 169 166 165 163 162 159 154 146 140 130 118 101 89 73 52 41 36 37 41 42 38 36 36 37 37 38
235 235 235 236 237 238 237 236 235 234 235 239 243 247 249 251 251 248 251 255 257 258 258 259 260 260 261 261 261 261 259 257 259 257 253 246 233 226 222 218 213 207 197 189 195 206 207 206 207 201 189 185 185 184 181 177 175 177 179 182 183 181 181 181 180 179 180 180 179 177 176 175 173 171 170 169 170 169 161 151 147 141 126 105 76 49 37 31 32 39 40 37 32 32 32 30 30
235 236 235 236 237 238 238 237 236 236 236 238 242 246 248 250 252 248 247 252 255 256 255 255 258 259 259 259 259 261 261 257 255 254 251 246 237 229 226 223 218 213 206 194 193 205 209 210 211 205 194 189 190 190 188 185 183 183 184 184 183 184 187 188 188 188 189 188 186 184 181 180 179 178 177 177 179 179 176 172 172 167 148 121 74 38 29 25 26 33 35 32 27 26 26 24 21
234 235 235 236 237 238 238 238 238 238 238 239 242 245 246 247 250 248 245 247 250 252 252 253 256 258 257 257 257 259 260 257 252 251 250 246 241 234 229 226 222 218 212 203 196 203 209 211 213 209 199 193 193 195 194 193 191 189 187 187 186 189 191 191 192 193 193 194 193 190 188 186 185 184 183 184 185 186 186 186 186 182 171 154 96 26 19 16 15 21 26 24 19 16 15 14 13
235 235 235 236 237 238 239 239 239 238 239 241 242 244 245 245 247 248 244 242 245 248 251 253 256 258 257 255 255 257 259 257 252 247 247 246 242 237 231 226 222 219 216 209 202 203 208 211 215 214 204 197 196 198 198 199 198 195 192 190 191 192 193 193 194 194 194 195 195 194 192 191 190 189 188 189 191 193 194 195 194 191 189 191 199 341 3 360 356 1 9 11 9 8 6 3 3
236 236 236 237 238 239 240 240 241 241 241 244 243 242 243 244 245 245 243 242 244 246 249 251 254 258 258 256 254 255 257 257 251 244 243 244 240 236 231 225 221 218 217 213 207 205 209 213 216 217 209 202 200 200 201 202 202 201 198 196 196 195 195 196 196 195 194 194 196 197 196 195 195 195 195 196 199 202 203 206 205 202 204 212 225 254 308 322 327 334 343 353 358 359 358 356 355
237 237 237 238 239 240 242 242 243 242 242 243 242 239 239 241 243 244 243 243 244 245 246 249 252 257 261 260 257 255 256 255 250 243 241 242 239 234 230 224 218 215 215 213 208 206 213 217 219 219 215 208 205 204 203 204 205 205 203 202 201 199 198 199 199 198 196 196 199 200 200 200 200 200 202 203 205 208 211 214 217 217 218 223 236 253 267 282 299 317 331 342 348 351 352 350 349
237 237 238 238 238 239 241 242 241 240 240 240 238 237 237 239 243 245 243 243 245 247 248 250 253 257 262 264 261 259 258 255 249 244 240 240 238 232 229 225 218 214 213 213 208 204 210 219 222 223 220 214 210 207 205 206 207 207 207 208 206 203 204 204 203 202 200 200 201 203 203 204 204 206 208 208 209 211 215 218 222 225 228 233 243 256 267 280 299 317 331 339 344 346 347 346 346
233 234 234 234 235 236 237 238 237 236 236 237 237 237 237 238 242 245 244 244 246 249 251 251 253 257 262 264 263 260 257 254 248 243 239 238 236 231 228 224 217 213 213 213 210 205 208 217 222 224 222 218 215 210 207 207 208 208 210 211 210 209 209 208 207 206 204 203 204 204 205 206 208 209 211 211 211 214 219 222 226 229 233 240 251 263 275 289 306 319 328 334 337 338 339 341 341
231 232 233 233 234 235 236 236 236 235 236 238 240 239 238 239 242 246 248 248 248 250 252 252 253 255 258 262 262 257 254 252 247 242 237 235 235 230 225 223 217 213 214 214 212 209 209 216 222 225 223 220 218 213 208 207 209 209 212 213 213 213 213 211 210 209 208 206 206 206 207 208 209 211 212 212 213 217 224 229 232 235 239 247 258 270 282 293 304 313 319 324 329 331 334 336 337
231 232 233 233 234 234 234 234 235 236 237 240 242 241 240 242 244 248 250 251 250 249 250 251 251 252 254 258 258 253 249 246 244 240 235 232 231 228 223 221 216 212 214 215 214 211 211 214 220 226 225 219 217 213 208 207 208 209 211 213 214 215 213 211 212 212 211 209 207 206 207 207 208 209 212 214 216 221 228 234 240 243 248 254 262 271 282 291 299 306 311 315 321 325 328 331 334
230 231 232 232 233 233 233 235 236 238 239 240 241 241 241 243 245 246 247 248 248 248 246 245 246 246 247 251 253 249 243 241 240 239 235 230 228 225 221 219 216 213 213 214 213 211 211 213 217 223 224 219 217 216 211 209 208 208 209 211 213 213 212 211 212 213 213 210 208 207 206 206 208 210 214 217 222 226 232 239 245 251 255 260 265 271 279 286 292 299 305 309 314 319 323 328 332
230 230 230 231 233 234 235 237 239 240 240 240 241 241 241 243 244 245 245 246 246 245 245 244 243 242 241 244 248 245 238 237 237 235 233 229 226 224 220 218 216 216 215 215 215 212 210 211 215 219 222 221 219 217 214 212 211 209 208 209 210 211 210 211 213 214 213 211 210 209 208 208 210 214 218 223 227 232 238 244 250 256 261 264 266 271 276 281 286 292 299 304 308 313 319 324 328
232 232 232 233 234 235 235 236 237 238 238 238 240 241 242 242 243 243 244 244 243 242 242 242 242 240 238 239 243 242 235 233 234 232 230 228 225 223 221 217 216 218 217 216 216 214 210 208 212 216 220 220 219 217 215 213 212 210 209 209 209 209 208 210 213 214 214 214 213 213 212 212 214 218 223 228 232 238 244 249 255 260 265 267 268 271 274 277 280 285 291 298 303 308 315 320 325
235 235 236 237 238 238 238 237 238 239 239 239 240 241 241 241 241 243 243 243 242 239 238 238 239 239 238 237 240 242 237 232 231 229 227 227 224 223 220 217 216 218 219 216 214 213 210 208 208 213 217 219 219 219 219 217 215 212 210 210 210 210 209 210 212 214 216 217 217 216 216 216 218 222 226 231 236 242 248 254 260 265 269 271 271 273 275 275 277 281 285 291 298 305 312 318 322
232 233 234 236 236 237 237 237 238 240 240 240 240 240 239 240 241 242 243 242 241 238 235 235 235 237 238 236 238 242 240 235 233 229 225 225 224 223 220 216 216 218 220 218 214 211 210 209 208 210 215 219 220 221 222 220 218 215 213 211 210 211 211 212 213 216 218 219 219 219 220 222 224 228 231 235 239 245 251 257 262 268 273 274 274 275 276 277 278 281 284 290 296 303 311 316 319